Orbital elements:
2006 OA5                                                 Earth MOID = 0.1223 AU
Epoch 2007 Apr. 10.0 TT = JDT 2454200.5                 MPC
M  88.22303              (2000.0)            P               Q
n   0.52413291     Peri.   87.28401     +0.79661433     -0.58635799
a   1.5234976      Node   308.56830     +0.45251738     +0.73962108
e   0.3785354      Incl.   10.83194     +0.40079125     +0.33037095
P   1.88           H   19.7           G   0.15           U   0
Residuals in seconds of arc
740620 260  0.8+  0.2+    060821 A53  0.4+  0.1+    060907 H45  0.2-  0.4-
740620 260  0.1+  0.6+    060821 A53  0.2+  0.1+    060907 H45  0.2-  0.1-
740723 260  0.1+  0.5+    060821 A53  0.3+  0.1+    060907 H45  0.2-  0.2-
740723 260  1.0-  0.1-    060821 940  0.7+  0.2+    060907 H45  0.2-  0.3-
060721 704  0.6+  0.2+    060821 A53  0.2+  0.0     060907 H45  0.1-  0.0
060721 704  0.3+  0.2+    060821 J68  0.2-  0.3+    060907 J68  0.1+  0.2-
060721 704  0.0   0.6-    060822 157  0.4+  0.1-    060907 J68  0.1-  0.0
060721 704  1.1+  0.6-    060822 157  0.2-  0.2+    060907 J68  1.2-  0.4+
060721 704  0.1-  0.2+    060822 157  0.0   0.3+    060909 J68  0.0   0.2+
060722 J87  0.1+  0.5+    060822 157  0.1+  0.1-    060909 J68  0.1+  0.3-
060722 J87  0.2-  0.0     060822 157  0.1-  0.4-    060909 J68  0.2-  0.9-
060722 J87  0.2+  0.0     060822 157  0.1+  0.2-    060909 113  0.9+  0.1+
060722 I77  0.3+  0.2+    060822 A16  1.3-  1.4+    060909 113  0.4+  0.2-
060722 I77  0.1+  0.0     060822 A16  0.8-  1.5+    060909 113  0.9-  1.0-
060722 I77  0.2-  0.1-    060822 203  0.0   0.1-    060909 A89  0.5+  0.4-
060722 734  0.0   0.1+    060822 A53  0.3+  0.3-    060909 A89  0.3+  0.3-
060722 734  0.1-  0.1+    060822 203  0.2+  0.3-    060909 A89  0.0   0.4-
060722 734  0.0   0.0     060822 A53  0.1+  0.1-    060909 046  0.4+  0.3+
060722 734  0.1+  0.0     060822 A53  0.8+  0.2+    060909 046  0.0   0.3+
060723 J95  0.4-  0.4-    060822 A16  1.5-  1.6+    060909 046  0.2+  0.3+
060723 J95  0.6-  0.0     060822 A16  1.3-  1.1+    060909 046  0.1-  0.2+
060723 J95  0.1+  0.0     060822 170  0.0   0.2-    060909 595  0.0   0.0
060723 J95  0.3-  0.3+    060822 170  0.3+  0.6-    060909 046  0.0   0.7+
060724 J95  0.3-  0.1-    060822 170  0.1-  0.6-    060909 595  0.1+  0.3+
060724 J95  0.2-  0.2-    060823 198  0.1-  0.1-    060909 595  0.2+  0.3+
060725 644  0.1-  0.3+    060823 198  0.2-  0.1-    060909 595  0.0   0.2+
060725 644  0.2-  0.7+    060823 198  0.2-  0.0     060909 B11  0.4+  0.1+
060725 644  0.4-  0.3+    060823 198  0.2-  0.0     060909 B11  0.2+  0.5+
060725 104  0.6-  1.2+    060823 198  0.2-  0.1-    060909 J68  0.3+  0.0
060725 104  0.3-  0.4+    060823 A13  0.2-  0.2+    060909 B11  0.3+  0.4+
060725 104  0.3-  0.7+    060823 A13  0.2-  0.5+    060909 B11  0.2+  0.0
060725 104  0.0   0.3+    060823 A13  0.0   0.2+    060909 B11  0.4+  0.4+
060726 644  0.6-  0.4+    060825 H45  0.3-  0.0     060909 J68  0.1-  0.2+
060726 644  0.5-  0.3+    060825 H45  0.0   0.1-    060909 J68  0.3+  0.4+
060726 644  0.4-  0.0     060825 H45  0.1-  0.1-    060910 084  0.2-  0.2+
060801 H45  0.1-  0.1+    060825 H45  0.1-  0.1-    060910 639  0.0   0.3+
060801 H45  0.2-  0.0     060825 H45  0.1-  0.1+    060910 639  0.1+  0.1+
060801 H45  0.1+  0.1+    060825 H45  0.0   0.0     060910 639  0.1-  0.4+
060801 H45  0.1+  0.1+    060829 084  0.5-  0.0     060910 A48  0.4-  1.3+
060801 H45  0.1+  0.0     060829 J68  0.9-  1.8+    060910 A48  0.6-  1.2+
060801 H45  0.2+  0.1+    060829 J68  0.7-  0.3+    060910 A48  0.6-  1.2+
060807 A17  0.0   0.1-    060829 J68  1.9-  0.5+    060910 A48  0.8-  0.9+
060807 A17  0.6+  0.2+    060830 H45  0.2-  0.2-    060912 704  1.8+  0.2+
060807 A17  0.4+  0.3-    060830 157  0.1+  0.1+    060912 704  1.7+  0.4+
060807 J68  0.6-  0.1+    060830 240  0.0   0.1-    060912 704 (3.1+  0.4+)
060807 J68  0.1-  0.8+    060830 157  0.2+  0.2-    060912 704  2.7+  0.3-
060808 J68  0.5+  0.5-    060830 157  0.3+  0.3-    060912 704  2.5+  0.3+
060808 H45  0.0   0.0     060830 240  0.8+  0.0     060912 A53  0.5-  0.2+
060808 H45  0.0   0.1-    060830 240  0.0   0.1-    060912 A53  0.5+  0.6-
060808 H45  0.2+  0.3-    060830 560  0.1+  0.2-    060912 A53  0.0   0.4+
060808 H45  0.1+  0.2-    060830 560  0.2+  0.1+    060912 A53  0.2+  0.7+
060808 H45  0.0   0.0     060830 560  0.2+  0.5-    060912 A53  0.3+  0.1-
060808 H45  0.0   0.0     060830 560  0.2-  0.0     060919 703  0.0   0.4+
060808 H45  0.1+  0.0     060830 127  2.2+  2.2-    060919 703  0.2-  0.7+
060808 H45  0.2-  0.2-    060830 127  2.1+  1.7-    060919 703  0.7-  0.3+
060812 H98  0.4+  0.5-    060831 H45  0.0   0.1+    060919 H45  0.1+  0.0
060812 H98  0.2+  0.8-    060831 H45  0.0   0.1+    060919 H45  0.2+  0.3-
060812 H98  0.0   0.5-    060831 H45  0.3-  0.1-    060919 H45  0.0   0.3-
060815 A13  0.5-  0.8+    060831 H45  0.0   0.0     060919 H45  0.4-  0.0
060815 A13  0.5-  0.5+    060831 H45  0.2-  0.1+    060919 H45  0.1+  0.2+
060815 204  0.0   0.2-    060831 H45  0.1-  0.2+    060919 H45  0.3-  0.2+
060815 A13  0.4-  0.4+    060831 151  0.9-  0.6-    060929 448  0.1-  0.3+
060815 204  0.0   0.3-    060831 151  0.3-  0.3-    060929 448  0.2-  0.1+
060815 A13  0.4-  0.6+    060831 151  0.2+  0.1+    060929 448  0.1+  0.2+
060815 204  0.0   0.3-    060831 203  0.4+  0.3-    061120 448  0.7-  0.1+
060815 300  0.6-  1.1+    060831 160  0.1+  0.4-    061120 448  0.2+  0.1+
060815 300  0.9-  0.9+    060831 160  0.0   0.2-    061120 448  0.1-  0.2-
060815 300  0.8-  1.1+    060831 160  0.1+  0.1-    061127 703  0.0   0.2-
060815 300  0.5+  0.3+    060831 160  0.1+  0.4-    061127 703  0.1+  0.1-
060817 H67  0.1+  0.8-    060831 160  1.3-  0.6-    061127 703  0.7+  0.2+
060817 H67  0.1+  0.3-    060831 160  1.2-  1.0-    061216 113  0.3+  0.0
060817 H67  0.9+  1.2-    060831 160  0.2+  0.2+    061216 113  0.4+  0.0
060817 H67  0.2+  0.4-    060831 160  0.0   0.2+    061216 113  0.3+  0.2-
060817 H67  0.5+  0.7-    060831 160  1.0-  0.2+    061216 113  0.2+  0.2-
060817 H67  0.0   0.4-    060831 203  0.2+  0.3-    061216 113  0.1+  0.1-
060817 H45  0.1-  0.1+    060901 379  0.1+  0.5-    061228 246  0.3+  0.4+
060817 H45  0.2-  0.1+    060901 379  0.0   0.4-    061228 246  0.6+  0.6+
060817 H45  0.3-  0.1+    060901 379  0.1-  0.1+    061228 246  0.2-  0.9+
060817 H45  0.2-  0.0     060901 379  0.4-  0.4+    061228 246  0.1+  0.6+
060817 H45  0.1-  0.0     060901 185  0.7-  0.5-    061228 246  0.3+  0.7+
060817 H45  0.2-  0.1-    060901 185  0.3+  1.3-    061228 246  0.2-  0.6+
060817 113  0.2+  0.4-    060901 185  0.1+  1.3-    061228 246  0.2+  0.3+
060817 113  0.1+  0.5-    060901 160  0.2+  0.2-    070110 703  0.1+  0.0
060817 113  0.2+  0.3-    060901 160  0.2-  0.0     070110 703  0.1+  0.7-
060817 113  0.3+  0.4-    060901 160  1.2-  0.5+    070110 703  0.3-  0.0
060817 113  0.1+  0.3-    060901 160  0.5-  1.1-    070110 703  0.2-  0.1+
060818 185  0.1-  0.6-    060901 160  0.4-  0.2-    070116 703  0.8+  1.0+
060818 185  0.0   0.1-    060902 084  0.3+  0.5-    070116 703  0.5-  0.6+
060818 185  0.1+  0.5-    060902 130  1.0-  0.8-    070116 703  0.5-  0.2+
060818 185  0.1+  0.6-    060902 130  0.4-  0.8-    070116 703  0.1-  0.3+
060818 127  0.1+  1.6+    060902 130  0.2-  0.8-    070123 704  0.1+  0.4+
060818 127  0.0   1.5+    060902 130  0.0   0.4-    070123 704  0.5+  0.1+
060818 127  0.1+  1.2+    060903 560  0.1+  0.2-    070123 704  0.2+  0.4-
060819 H45  0.1-  0.0     060903 560  0.3+  0.0     070123 704  1.2+  0.1+
060819 H45  0.1-  0.0     060903 560  0.1-  0.1-    070123 704  1.6+  0.7-
060819 H45  0.1-  0.0     060904 473  0.4+  0.1+    070123 H45  0.2+  0.2-
060819 H45  0.1-  0.1-    060905 198  0.0   0.0     070123 H45  0.3+  0.3-
060819 H45  0.0   0.0     060905 198  0.1+  0.1-    070123 H45  0.0   0.1-
060819 H45  0.1-  0.0     060905 198  0.3+  0.0     070123 H45  0.3+  0.2-
060819 H45  0.0   0.0     060905 198  0.2+  0.1-    070123 H45  0.1-  0.1-
060819 198  0.1-  0.1-    060905 198  0.4+  0.2-    070124 703  0.1-  0.5-
060819 198  0.2-  0.0     060905 473  0.6+  1.0+    070124 703  0.5+  0.6-
060819 198  0.2-  0.2-    060905 046  0.2+  0.2+    070124 703  0.3-  0.5-
060819 198  0.2-  0.0     060905 046  0.4+  0.1-    070124 703  0.3+  0.4+
060820 H45  0.1+  0.1-    060905 046  0.2+  0.1+    070125 691  0.1+  0.1+
060820 H45  0.0   0.0     060905 046  0.7+  0.3+    070125 691  0.5-  1.0+
060820 H45  0.1-  0.2-    060905 046  0.5+  0.3-    070125 691  0.0   0.1-
060820 H45  0.1+  0.1+    060906 H45  0.0   0.2+    070127 A24  0.2-  0.5+
060820 H45  0.1-  0.2-    060906 H45  0.5-  0.0     070127 A24  0.3+  0.1-
060820 H45  0.1-  0.1+    060906 H45  0.5-  0.3+    070127 A24  0.3-  1.2+
060820 A53  0.9+  0.2-    060906 H45  0.1-  0.2+    070127 A24  0.5+  0.1+
060820 A53  0.0   0.5+    060906 H45  0.2-  0.4-    070128 A24  0.1+  0.3+
060820 A53  0.9+  1.8+    060906 H45  0.3-  0.0     070128 A24  0.7+  0.6+
060820 A53  0.2+  0.2+    060906 639  0.7-  0.3+    070128 B23  0.3-  0.4-
060821 940  0.1+  0.1-    060906 639  0.8+  0.2-    070128 A24  1.6+  0.5-
060821 940  0.2+  0.1-    060906 639  0.1-  1.4+    070128 B23  0.1+  0.9+
060821 J68  0.6-  0.4+    060906 639  0.1-  0.2+    070128 B23  0.5-  0.7-
060821 J68  0.2-  0.2+    060907 H45  0.2-  0.1+    070128 B23  0.4+  0.1+
060821 A53  0.8+  0.3+    060907 H45  0.1+  0.3-
060821 940  0.2+  0.1+    060907 H45  0.4-  0.2-

